Flag for Germany Weather past 2 weeks in Würzburg, Bavaria, Germany

Now
49 °F

Passing clouds.


Feels Like: 49 °F
Forecast: 48 / 73 °F
Wind: 2 mph from South

Location: Wuerzburg

Current Time: Jul 30, 2015 at 6:50:00 AM

Latest Report: Jul 30, 2015 at 5:00 AM


Visibility: 22 mi

Pressure: 30.00 "Hg

Humidity: 90%

Dew point: 46 °F

Location of WürzburgLocation

Historic Weather in Würzburg — Graph

°F

Würzburg temperature yesterday

Maximum temperature yesterday: 66 °F (at 7:00 PM)
Minimum temperature yesterday: 56 °F (at 6:00 AM)
Average temperature yesterday: 59 °F

Past Weeks' High & Low Weather Summary

 TemperatureHumidityPressure
High94 °F (Jul 17, 6:00 PM)95% (Jul 20, 4:00 AM)30.15 "Hg (Jul 20, 4:00 AM)
Low49 °F (Jul 30, 5:00 AM)18% (Jul 17, 4:00 PM)29.68 "Hg (Jul 25, 5:00 AM)
Average71 °F60%29.92 "Hg
* Reported Jul 15 5:00 AM — Jul 30 5:00 AM, Würzburg, Weather by CustomWeather, © 2015

Note: Actual official high and low records may vary slightly from our data, if they occured in-between our weather recording intervals... More about our weather records

Advertising

Würzburg weather history for previous 24 hours

 ConditionsComfort  
Time TempWeatherWind HumidityBarometerVisibility
5:00 AM
Thu, Jul 30
49 °FPassing clouds.2 mph90%30.00 "Hg22 mi
4:00 AM49 °FClear.2 mph91%30.00 "Hg34 mi
3:00 AM51 °FPassing clouds.2 mph86%29.99 "Hg34 mi
2:00 AM53 °FPassing clouds.1 mph77%29.98 "Hg34 mi
1:00 AM53 °FPassing clouds.2 mph78%29.97 "Hg34 mi
12:00 AM55 °FClear.1 mph77%29.96 "Hg34 mi
11:00 PM
Wed, Jul 29
57 °FClear.2 mph71%29.93 "Hg34 mi
10:00 PM59 °FPassing clouds.5 mph73%29.91 "Hg34 mi
9:00 PM61 °FPassing clouds.6 mph65%29.88 "Hg34 mi
8:00 PM64 °FPassing clouds.8 mph56%29.85 "Hg37 mi
7:00 PM66 °FScattered clouds.9 mph48%29.84 "Hg37 mi
6:00 PM66 °FScattered clouds.7 mph46%29.84 "Hg37 mi
5:00 PM65 °FScattered clouds.7 mph56%29.83 "Hg37 mi
4:00 PM61 °FOvercast.5 mph71%29.84 "Hg25 mi
3:00 PM59 °FLight rain. Overcast.6 mph79%29.84 "Hg16 mi
2:00 PM60 °FLight rain. Overcast.7 mph70%29.83 "Hg16 mi
1:00 PM60 °FSprinkles. Overcast.6 mph74%29.83 "Hg19 mi
12:00 PM60 °FOvercast.6 mph69%29.83 "Hg25 mi
11:00 AM58 °FOvercast.7 mph71%29.85 "Hg28 mi
10:00 AM57 °FSprinkles. Overcast.3 mph80%29.86 "Hg22 mi
9:00 AM57 °FOvercast.5 mph82%29.87 "Hg19 mi
8:00 AM57 °FOvercast.7 mph77%29.87 "Hg19 mi
7:00 AM56 °FOvercast.7 mph79%29.88 "Hg22 mi
6:00 AM56 °FOvercast.7 mph80%29.88 "Hg25 mi
Weather by CustomWeather, © 2015

See weather overviewHow to use our weather pages